Find deb DMSP F-13

NORAD ID: 40448 Int'l Des: 1995-015 Owner: AFSMC Country: US Debris
LEOCIRCULARRETROGRADESSO

Live-Position

3D-Globus wird geladen...

Über deb DMSP F-13

Beschreibung wird geladen...

Nächste Überflüge

Passes for default location (London). Set your location on the main map for personalized predictions.

Höhenverlauf

Loading altitude history...

Zweizeiliger Elementsatz

1 40448U 95015BA 26125.23229476 .00004068 00000-0 17076-2 0 9992
2 40448 98.9732 130.9681 0037839 167.0665 193.1493 14.26087349575404
Epoch: 5. Mai 2026 • Age: 58 hours

Aktueller Status

Höhe 794.8 km
Geschwindigkeit 7.47 km/s
Subsatellitenpunkt -24.95°S, 152.99°W
Startdatum 24. März 1995
Alter 31.1 years
Typ debris

Technische Details

Klassifizierung Fragmentation Debris
Masse 0.00 kg
Trockenmasse 0.00 kg
Gesamtmasse 0.00 kg
Länge 0.00 m
Durchmesser 0.00 m
Spannweite 0.00 m
Phasenstatus In Orbit
Besitzer/Staat AFSMC/US

Most Searched